OBJECT F, 57171

Orbit data source: Space-Track

You're viewing an uncataloged RSO

Recently launched and/or uncataloged RSOs may have evolving metadata. Metadata may include the following, but is not limited to: Owner, Manufacturer, Bus, Motor, and Mission.

OBJECT F, 57171 is a satellite in SSO that was launched on Tue, 27 Jun 2023 UTC via a SOYUZ-2-1B launch vehicle from the Vostochny Cosmodrome (VOSTO). Unknown objects in Earth's orbit typically refer to objects detected orbiting the Earth but have not yet been identified or cataloged. These objects could be anything from previously untracked satellites, spent rocket stages, debris from satellite collisions, or even natural meteoroids temporarily captured by Earth's gravity.

Loading next visibility...
Identifier
57171, 2023-091F
Orbit
SSO
Country
Flag of TBDTBD
Related business
None
Manufacturer
Unknown
Mission
Operational Amateur Science
Bus & Motor
Unknown
Mass
Unknown
Launch date (UTC)
2023-06-27 (3 years ago)
Launch vehicle
SOYUZ-2-1B
Launch site
Vostochny Cosmodrome (VOSTO)
Object type
Unknown
Shape & HBR
Box, 0.2 m
Radar Cross Section
0.035 m², Medium (>0.1 m² and < 1m²)

Expand to show TLE details & history
Last TLE update: 5 hours ago

TLE from 5 hours ago
0 OBJECT F
1 57171U 23091F   26257.23737164  .00006198  00000-0  24798-3 0  9998
2 57171  97.5017 319.0259 0011431 152.2377 207.9473 15.25393501177739
Epoch: 2026-09-14T05:41Z
TLE epoch observation values (Epoch: 2026-09-14T05:41:48.909Z)
Latitude
-0.00005°
Longitude
-119.64843°
Altitude
499.637 km
Speed
7.611 km/s
True Right ascension
21h 16m 06s
True Declination
0° 00' 00"
Sunlit
Object was in full shadow at epoch
Visualization orbit readout
Latitude
Unknown
Longitude
Unknown
Altitude
Unknown
Speed
Unknown
Apparent Right ascension
Unknown
Apparent Declination
Unknown
Sunlit
N/A
Visualization observer readout
Local Sidereal Time
03:29:41
Azimuth
Unknown
Elevation
Unknown
Doppler factor
Unknown
Orbital elements
Apogee altitude
494.414 km
Perigee altitude
478.72 km
Semi-major axis
6,864.704 km
Eccentricity
0.00114
Inclination
97.5017°
RAAN
319.0259°
Arg. of periapsis
152.2377°
True anomaly
207.88599°
Mean anomaly
207.9473°
Eccentric anomaly
207.91664°
Mean motion
3.81602 °/min
Orbital period
94.34 mins
BSTAR
0.00024798
Loading maneuver chart data...
Computing Atmospheric mass density...
Loading historical data...
Loading historical data...
Loading historical data...
Loading historical data...
Loading historical data...
Loading historical data...
Loading historical data...

Documentation

Showing up to 5 results
|